Kezdőlap
METAR-TAF:

METAR-TAF

Repülőterek :

Airlake Airport

Minneapolis-Lakeville, Minnesota, Amerikai Egyesült Államok

földrajzi szélesség: 44-37-40N, földrajzi hosszúság: 093-13-41W, magasság: 293 m

Jelenlegi meteorológiai megfigyelések

A jelentés 22 perccel ezelõtt készült, 12:15 UTC
Északnyugati szél 7 kt
Hőmérséklet 17°C
Páratartalom 72%
Légköri nyomás 1019 hPa
Látótávolság: 16.1 km
Derült ég

METAR: KLVN 171215Z AUTO 32007KT 10SM CLR 17/12 A3010 RMK AO2

Idő: 07:37 (12:37 UTC)


TAF: hiányzik

Meteorológiai megfigyelések és előrejelzések több, mint 4000 repülőtéren (METAR és TAF jelentéseket).

A térképen piros és sárga pontok jelzik az elérhető meteorológiai állomásokat.

Mozgassa az egeret a pont fölött, hogy megjelenjen az állomás neve.

Azután kattintson az időjárási megfigyelések és előrejelzések megtekintéséhez.

A térkép megváltoztatása: kattintson a fekete keresztel jelölt zöld gombra ráközelítéshez, a vonallal jelölt zöld gombra távolításhoz, vagy a zöld nyilakra a szomszédos térképek eléréséhez.


METAR-TAF: